EW2602 Weather Reports


Display with metric or nautical units.
time (UTC)temp
F
wind
direction
speed
MPH
gust
MPH
rain 1hr
in
rain 24hr
in
rain mn
in
humidity
%
barometer
mb
20260906124518 72 344 0.0 0.0 0.00 0.00 0.00 1 1013.7
20260906123016 72 339 0.0 0.0 0.00 0.00 0.00 1 1013.5
20260906121509 72 339 0.0 0.0 0.00 0.00 0.00 1 1013.3
20260906120009 72 339 0.0 0.0 0.00 0.00 0.00 1 1013.2
20260906114501 72 343 0.0 0.0 0.00 0.00 0.00 1 1013.2
20260906113057 72 343 0.0 0.0 0.00 0.00 0.00 4 1012.9
20260906111552 72 121 0.0 0.0 0.00 0.00 0.00 4 1013.0
20260906110048 72 307 0.0 0.0 0.00 0.00 0.00 3 1013.0
20260906104543 72 355 0.0 0.0 0.00 0.00 0.00 3 1012.6
20260906103050 72 24 0.0 0.0 0.00 0.00 0.00 2 1012.5
20260906101534 72 24 0.0 0.0 0.00 0.00 0.00 5 1012.4
20260906100034 72 24 0.0 0.0 0.00 0.00 0.00 10 1012.1
20260906094525 72 24 0.0 0.0 0.00 0.00 0.00 6 1012.2
20260906093024 73 24 0.0 0.0 0.00 0.00 0.00 6 1012.6
20260906091517 73 24 0.0 0.0 0.00 0.00 0.00 3 1012.7
20260906090012 73 343 0.0 0.0 0.00 0.00 0.00 3 1012.9
20260906084508 73 336 0.0 0.0 0.00 0.00 0.00 2 1013.0
20260906083003 72 336 0.0 0.0 0.00 0.00 0.00 1 1012.8
20260906081558 72 30 0.0 0.0 0.00 0.00 0.00 1 1012.8
20260906080056 72 27 0.0 0.0 0.00 0.00 0.00 1 1012.7
20260906074553 72 319 0.0 0.0 0.00 0.00 0.00 1 1012.9
20260906073045 72 34 0.0 0.0 0.00 0.00 0.00 1 1012.9
20260906071540 72 34 0.0 0.0 0.00 0.00 0.00 1 1012.8
20260906070036 72 34 0.0 0.0 0.00 0.00 0.00 1 1012.7
20260906064537 72 34 0.0 0.0 0.00 0.00 0.00 1 1012.6
20260906063029 73 34 0.0 0.0 0.00 0.00 0.00 1 1012.7
20260906061525 73 34 0.0 0.0 0.00 0.00 0.00 3 1012.7
20260906060021 73 34 0.0 0.0 0.00 0.00 0.00 5 1012.8
20260906054526 73 34 0.0 0.0 0.00 0.00 0.00 5 1012.8
20260906053014 73 34 0.0 0.0 0.00 0.00 0.00 9 1012.6
20260906051510 74 34 0.0 0.0 0.00 0.00 0.00 10 1012.7
20260906050009 74 34 0.0 0.0 0.00 0.00 0.00 9 1012.9
20260906044507 74 34 0.0 0.0 0.00 0.00 0.00 13 1013.1
20260906043105 74 34 0.0 0.0 0.00 0.00 0.00 13 1013.1
20260906041555 74 34 0.0 0.0 0.00 0.00 0.00 11 1013.2
20260906040051 75 34 0.0 0.0 0.00 0.00 0.00 15 1013.3
20260906034552 75 34 0.0 0.0 0.00 0.00 0.00 16 1013.5
20260906033045 75 34 0.0 0.0 0.00 0.00 0.00 16 1013.3
20260906031540 75 34 0.0 0.0 0.00 0.00 0.00 16 1013.2
20260906030034 76 34 0.0 0.0 0.00 0.00 0.00 20 1013.2
20260906024529 76 34 0.0 0.0 0.00 0.00 0.00 22 1013.1
20260906023027 77 34 0.0 0.0 0.00 0.00 0.00 24 1012.9
20260906021534 77 34 0.0 0.0 0.00 0.00 0.00 28 1013.0
20260906020019 78 34 0.0 0.0 0.00 0.00 0.00 32 1013.0
20260906014516 78 34 0.0 0.0 0.00 0.00 0.00 33 1012.8
20260906013013 78 34 0.0 0.0 0.00 0.00 0.00 33 1012.5
20260906011502 79 34 0.0 0.0 0.00 0.00 0.00 33 1012.1
20260906010058 79 34 0.0 0.0 0.00 0.00 0.00 38 1011.9
20260906004554 79 34 0.0 0.0 0.00 0.00 0.00 31 1011.8
20260906003050 79 55 0.0 0.0 0.00 0.00 0.00 33 1011.5
20260906001545 80 16 0.0 0.0 0.00 0.00 0.00 40 1011.1
20260906000041 81 16 0.0 0.0 0.00 0.00 0.00 46 1011.5
20260905234540 82 309 0.0 0.0 0.00 0.00 0.00 53 1011.7
20260905233033 82 309 0.0 0.0 0.00 0.00 0.00 54 1011.7
20260905231528 81 34 0.0 0.0 0.00 0.00 0.00 56 1011.2
20260905230023 81 34 0.0 0.0 0.00 0.00 0.00 58 1010.9
20260905224524 82 34 0.0 0.0 0.00 0.00 0.00 63 1011.1
20260905223015 82 34 0.0 0.0 0.00 0.00 0.00 64 1011.1
20260905221512 82 34 0.0 0.0 0.00 0.00 0.00 63 1011.3
20260905220007 83 34 0.0 0.0 0.00 0.00 0.00 63 1011.0
20260905214503 84 34 0.0 0.0 0.00 0.00 0.00 57 1011.0
20260905213102 85 34 0.0 0.0 0.00 0.00 0.00 60 1011.3
20260905211557 87 46 0.0 0.0 0.00 0.00 0.00 63 1011.3
20260905210055 89 58 0.0 0.0 0.00 0.00 0.00 61 1011.2
20260905204545 91 57 0.0 0.0 0.00 0.00 0.00 62 1011.2
20260905203041 92 57 0.0 0.0 0.00 0.00 0.00 60 1011.1
20260905201536 93 57 0.0 0.0 0.00 0.00 0.00 58 1011.4
20260905200035 93 241 0.0 0.0 0.00 0.00 0.00 59 1011.5
20260905194527 93 94 0.0 0.0 0.00 0.00 0.00 56 1011.7
20260905193026 94 271 0.0 0.0 0.00 0.00 0.00 53 1011.8
20260905191522 94 138 0.0 0.0 0.00 0.00 0.00 53 1012.0
20260905190018 94 40 0.0 0.0 0.00 0.00 0.00 54 1012.2
20260905184519 94 61 0.0 0.0 0.00 0.00 0.00 56 1012.3
20260905183006 93 348 0.0 0.0 0.00 0.00 0.00 58 1012.6
20260905181602 94 138 0.0 0.0 0.00 0.00 0.00 55 1012.7
20260905180056 93 44 0.0 0.0 0.00 0.00 0.00 58 1012.9
20260905174552 93 101 0.0 0.0 0.00 0.00 0.00 58 1013.3
20260905173048 92 115 0.0 0.0 0.00 0.00 0.00 59 1013.5
20260905171549 91 309 0.0 0.0 0.00 0.00 0.00 59 1013.7
20260905170039 91 300 0.0 0.0 0.00 0.00 0.00 60 1013.7
20260905164534 89 309 0.0 0.0 0.00 0.00 0.00 61 1014.0
20260905163030 88 151 0.0 0.0 0.00 0.00 0.00 58 1014.2
20260905161525 87 116 0.0 0.0 0.00 0.00 0.00 59 1014.5
20260905160022 86 97 0.0 0.0 0.00 0.00 0.00 56 1014.7
20260905154516 84 63 0.0 0.0 0.00 0.00 0.00 56 1014.9
20260905153015 83 30 0.0 0.0 0.00 0.00 0.00 51 1014.9
20260905151512 82 50 0.0 0.0 0.00 0.00 0.00 51 1015.0
20260905150003 80 265 0.0 0.0 0.00 0.00 0.00 42 1015.1
20260905144559 79 288 0.0 0.0 0.00 0.00 0.00 21 1015.1
20260905143054 78 288 0.0 0.0 0.00 0.00 0.00 17 1015.2
20260905141559 77 69 0.0 0.0 0.00 0.00 0.00 2 1015.3
20260905140045 77 244 0.0 0.0 0.00 0.00 0.00 3 1015.4
20260905134540 76 244 0.0 0.0 0.00 0.00 0.00 1 1015.4
20260905133036 75 244 0.0 0.0 0.00 0.00 0.00 1 1015.5
20260905131532 74 244 0.0 0.0 0.00 0.00 0.00 1 1015.6
20260905130031 74 244 0.0 0.0 0.00 0.00 0.00 1 1015.6